Location: Unspecified
(43.3830°N, 0.0000°E)
Time: 04:31:10
(UTC+00:00)

Explorer 7 - Pass Details

Date: 04 July 2019
Orbit: 485 x 680 km, 50.3° (Epoch: 21 July)

Event Time Altitude Azimuth Distance (km) Brightness Sun altitude
Rises 09:40:51 0° 299° (WNW) 2,790 10.1 54.1°
Reaches altitude 10° 09:43:03 10° 299° (WNW) 1,921 9.3 54.4°
Maximum altitude 09:47:29 87° 211° (SSW) 623 8.2 55.2°
Drops below altitude 10° 09:52:10 10° 123° (ESE) 2,032 10.5 55.9°
Sets 09:54:34 0° 123° (ESE) 2,965 11.1 56.3°
